BATSU-CS1 (IRAZU) (43468 NORAD) Tracking and Keplerian Element Data

This shows tracking and keplerian element data for the satellite.

Feedback or suggestion? Click here.




ElementValue
Catalog43468
NameBATSU-CS1 (IRAZU)
Epoch Orbit15894
Epoch Day144.16158872
Epoch Year2019
RAAN101.2963
Inclination51.6366
Eccentricity0.0002391
Argument of Perigee59.6586
Mean Anonmoly300.4646
Mean Motion15.67835066
Decay Rate0.00018115
L11 43468U 98067NR 19144.16158872 .00018115 00000-0 16602-3 0 9996
L22 43468 51.6366 101.2963 0002391 59.6586 300.4646 15.67835066158947

Live tracking and technical data element details for BATSU-CS1 (IRAZU) (NORAD 43468). BATSU-CS1 (IRAZU) can be tracked NOW for your location showing map with azimuth and elevation plus other details from your city location.

Track the satellite on the map from your city or location and see movement details for azimuth, elevation, latitude, longitude, range, height, and movement on the map or in text.







IsCatalogInMostPopularTable: catalog: 43468, numindb: 200
Update: records affected: 1



GetName: 43468 BATSU-CS1 (IRAZU)

Hit Count: updated at: Fri, 24 May 2019 20:48:20 GMT